Time,TemperatureF,DewpointF,PressureIn,WindDirection,WindDirectionDegrees,WindSpeedMPH,WindSpeedGustMPH,Humidity,HourlyPrecipIn,Conditions,Clouds,dailyrainin,SoftwareType,DateUTC
2013-01-17 00:02:00,-999.0,-99.9,-100.00,North,5,13.0,-999.0,-999,-99.99,,,-99.99,,2013-01-17 08:02:00,
2013-01-17 00:12:00,-999.0,-99.9,-100.00,NNE,22,13.0,-999.0,-999,-99.99,,,-99.99,,2013-01-17 08:12:00,
2013-01-17 00:22:00,46.0,-99.9,-100.00,North,-999,-999.0,-999.0,-999,-99.99,,,-99.99,,2013-01-17 08:22:00,
2013-01-17 00:33:00,-999.0,-99.9,-100.00,NNE,28,10.0,-999.0,-999,-99.99,,,-99.99,,2013-01-17 08:33:00,
2013-01-17 00:44:00,-999.0,-99.9,-100.00,NNE,22,10.0,-999.0,-999,-99.99,,,-99.99,,2013-01-17 08:44:00,
2013-01-17 00:52:00,45.0,14.0,-100.00,North,-999,-999.0,-999.0,28,-99.99,,,0.00,,2013-01-17 08:52:00,
2013-01-17 01:02:00,45.0,14.0,-100.00,North,-999,-999.0,-999.0,28,-99.99,,,0.00,,2013-01-17 09:02:00,
2013-01-17 01:12:00,-999.0,-99.9,-100.00,NNW,331,5.0,-999.0,-999,-99.99,,,-99.99,,2013-01-17 09:12:00,
2013-01-17 01:33:00,-999.0,-99.9,-100.00,NNE,28,6.0,-999.0,-999,-99.99,,,-99.99,,2013-01-17 09:33:00,
2013-01-17 01:43:00,-999.0,-99.9,-100.00,NNE,28,6.0,-999.0,-999,-99.99,,,-99.99,,2013-01-17 09:43:00,
2013-01-17 01:53:00,-999.0,-99.9,-100.00,NE,39,10.0,-999.0,-999,-99.99,,,-99.99,,2013-01-17 09:53:00,
2013-01-17 02:02:00,-999.0,-99.9,-100.00,NE,39,11.0,-999.0,-999,-99.99,,,-99.99,,2013-01-17 10:02:00,
2013-01-17 02:12:00,-999.0,-99.9,-100.00,NNE,28,12.0,-999.0,-999,-99.99,,,-99.99,,2013-01-17 10:12:00,
2013-01-17 02:22:00,-999.0,-99.9,-100.00,NNE,28,12.0,-999.0,-999,-99.99,,,-99.99,,2013-01-17 10:22:00,
2013-01-17 02:33:00,-999.0,-99.9,-100.00,NNE,28,12.0,-999.0,-999,-99.99,,,-99.99,,2013-01-17 10:33:00,
2013-01-17 02:43:00,-999.0,-99.9,-100.00,ESE,106,6.0,-999.0,-999,-99.99,,,-99.99,,2013-01-17 10:43:00,
2013-01-17 03:03:00,-999.0,-99.9,-100.00,NNE,28,7.0,-999.0,-999,-99.99,,,-99.99,,2013-01-17 11:03:00,
2013-01-17 03:12:00,-999.0,-99.9,-100.00,NNE,28,11.0,-999.0,-999,-99.99,,,-99.99,,2013-01-17 11:12:00,
2013-01-17 03:33:00,-999.0,-99.9,-100.00,North,5,9.0,-999.0,-999,-99.99,,,-99.99,,2013-01-17 11:33:00,
2013-01-17 04:03:00,-999.0,-99.9,-100.00,North,11,7.0,-999.0,-999,-99.99,,,-99.99,,2013-01-17 12:03:00,
2013-01-17 04:33:00,-999.0,-99.9,-100.00,SSE,163,4.0,-999.0,-999,-99.99,,,-99.99,,2013-01-17 12:33:00,
2013-01-17 04:43:00,-999.0,-99.9,-100.00,SSE,163,4.0,-999.0,-999,-99.99,,,-99.99,,2013-01-17 12:43:00,
2013-01-17 04:53:00,-999.0,-99.9,-100.00,NNW,343,6.0,-999.0,-999,-99.99,,,-99.99,,2013-01-17 12:53:00,
2013-01-17 05:03:00,-999.0,-99.9,-100.00,NNW,343,6.0,-999.0,-999,-99.99,,,-99.99,,2013-01-17 13:03:00,
2013-01-17 05:13:00,-999.0,-99.9,-100.00,NNW,343,6.0,-999.0,-999,-99.99,,,-99.99,,2013-01-17 13:13:00,
2013-01-17 05:23:00,42.0,-99.9,-100.00,North,-999,-999.0,-999.0,-999,-99.99,,,-99.99,,2013-01-17 13:23:00,
2013-01-17 06:13:00,-999.0,-99.9,-100.00,NE,45,3.0,-999.0,-999,-99.99,,,-99.99,,2013-01-17 14:13:00,
2013-01-17 06:23:00,-999.0,-99.9,-100.00,NE,45,3.0,-999.0,-999,-99.99,,,-99.99,,2013-01-17 14:23:00,
2013-01-17 06:33:00,-999.0,-99.9,-100.00,NE,45,3.0,-999.0,-999,-99.99,,,-99.99,,2013-01-17 14:33:00,
2013-01-17 06:43:00,-999.0,-99.9,-100.00,NNW,343,6.0,-999.0,-999,-99.99,,,-99.99,,2013-01-17 14:43:00,
2013-01-17 06:53:00,-999.0,-99.9,-100.00,NNW,343,6.0,-999.0,-999,-99.99,,,-99.99,,2013-01-17 14:53:00,
2013-01-17 07:03:00,-999.0,-99.9,-100.00,NNW,343,6.0,-999.0,-999,-99.99,,,-99.99,,2013-01-17 15:03:00,
2013-01-17 07:13:00,-999.0,-99.9,-100.00,NNW,343,6.0,-999.0,-999,-99.99,,,-99.99,,2013-01-17 15:13:00,
2013-01-17 07:52:00,42.0,15.0,-100.00,North,-999,-999.0,-999.0,33,-99.99,,,-99.99,,2013-01-17 15:52:00,
2013-01-17 08:34:00,-999.0,-99.9,-100.00,East,84,1.0,-999.0,-999,-99.99,,,-99.99,,2013-01-17 16:34:00,
2013-01-17 11:33:00,-999.0,-99.9,-100.00,NW,326,6.0,-999.0,-999,-99.99,,,-99.99,,2013-01-17 19:33:00,
2013-01-17 11:43:00,-999.0,-99.9,-100.00,NW,326,6.0,-999.0,-999,-99.99,,,-99.99,,2013-01-17 19:43:00,
2013-01-17 11:54:00,-999.0,-99.9,-100.00,NW,326,6.0,-999.0,-999,-99.99,,,-99.99,,2013-01-17 19:54:00,
2013-01-17 12:03:00,-999.0,-99.9,-100.00,NW,326,6.0,-999.0,-999,-99.99,,,-99.99,,2013-01-17 20:03:00,
2013-01-17 12:13:00,56.0,-99.9,-100.00,North,-999,-999.0,-999.0,-999,-99.99,,,-99.99,,2013-01-17 20:13:00,
2013-01-17 12:23:00,56.0,-99.9,-100.00,North,-999,-999.0,-999.0,-999,-99.99,,,-99.99,,2013-01-17 20:23:00,
2013-01-17 12:34:00,56.0,-99.9,-100.00,North,-999,-999.0,-999.0,-999,-99.99,,,-99.99,,2013-01-17 20:34:00,
2013-01-17 12:53:00,59.0,9.0,-100.00,North,-999,-999.0,-999.0,13,-99.99,,,0.00,,2013-01-17 20:53:00,
2013-01-17 13:03:00,-999.0,-99.9,-100.00,NNW,337,4.0,-999.0,-999,-99.99,,,-99.99,,2013-01-17 21:03:00,
2013-01-17 13:13:00,-999.0,-99.9,-100.00,NNW,337,4.0,-999.0,-999,-99.99,,,-99.99,,2013-01-17 21:13:00,
2013-01-17 13:24:00,-999.0,-99.9,-100.00,NNW,337,4.0,-999.0,-999,-99.99,,,-99.99,,2013-01-17 21:24:00,
2013-01-17 13:34:00,-999.0,-99.9,-100.00,NNW,337,4.0,-999.0,-999,-99.99,,,-99.99,,2013-01-17 21:34:00,
2013-01-17 13:43:00,-999.0,-99.9,-100.00,NNE,22,4.0,-999.0,-999,-99.99,,,-99.99,,2013-01-17 21:43:00,
2013-01-17 13:54:00,-999.0,-99.9,-100.00,NNE,22,4.0,-999.0,-999,-99.99,,,-99.99,,2013-01-17 21:54:00,
2013-01-17 14:04:00,-999.0,-99.9,-100.00,NNE,22,4.0,-999.0,-999,-99.99,,,-99.99,,2013-01-17 22:04:00,
2013-01-17 14:12:00,-999.0,-99.9,-100.00,NNE,22,4.0,-999.0,-999,-99.99,,,-99.99,,2013-01-17 22:12:00,
2013-01-17 14:22:00,65.0,7.0,-100.00,North,-999,-999.0,-999.0,9,-99.99,,,-99.99,,2013-01-17 22:22:00,
2013-01-17 14:33:00,65.0,7.0,-100.00,North,-999,-999.0,-999.0,9,-99.99,,,-99.99,,2013-01-17 22:33:00,
2013-01-17 14:42:00,65.0,7.0,-100.00,North,-999,-999.0,-999.0,9,-99.99,,,-99.99,,2013-01-17 22:42:00,
2013-01-17 14:52:00,65.0,7.0,-100.00,North,-999,-999.0,-999.0,9,-99.99,,,-99.99,,2013-01-17 22:52:00,
2013-01-17 15:43:00,-999.0,-99.9,-100.00,NW,309,3.0,-999.0,-999,-99.99,,,-99.99,,2013-01-17 23:43:00,
2013-01-17 16:12:00,62.0,10.0,-100.00,North,-999,-999.0,-999.0,12,-99.99,,,-99.99,,2013-01-18 00:12:00,
2013-01-17 16:23:00,-999.0,-99.9,-100.00,West,281,4.0,-999.0,-999,-99.99,,,-99.99,,2013-01-18 00:23:00,
2013-01-17 16:33:00,-999.0,-99.9,-100.00,West,281,4.0,-999.0,-999,-99.99,,,-99.99,,2013-01-18 00:33:00,
2013-01-17 17:12:00,59.0,11.0,-100.00,North,-999,-999.0,-999.0,15,-99.99,,,-99.99,,2013-01-18 01:12:00,
2013-01-17 17:22:00,59.0,11.0,-100.00,North,-999,-999.0,-999.0,15,-99.99,,,-99.99,,2013-01-18 01:22:00,
2013-01-17 17:32:00,56.0,13.0,-100.00,North,-999,-999.0,-999.0,18,-99.99,,,-99.99,,2013-01-18 01:32:00,
2013-01-17 17:42:00,56.0,13.0,-100.00,North,-999,-999.0,-999.0,18,-99.99,,,-99.99,,2013-01-18 01:42:00,
2013-01-17 18:12:00,-999.0,-99.9,-100.00,ENE,61,3.0,-999.0,-999,-99.99,,,-99.99,,2013-01-18 02:12:00,
2013-01-17 18:23:00,-999.0,-99.9,-100.00,ENE,61,3.0,-999.0,-999,-99.99,,,-99.99,,2013-01-18 02:23:00,
2013-01-17 18:33:00,-999.0,-99.9,-100.00,ENE,61,3.0,-999.0,-999,-99.99,,,-99.99,,2013-01-18 02:33:00,
2013-01-17 19:13:00,-999.0,-99.9,-100.00,North,5,3.0,-999.0,-999,-99.99,,,-99.99,,2013-01-18 03:13:00,
2013-01-17 19:23:00,-999.0,-99.9,-100.00,North,5,3.0,-999.0,-999,-99.99,,,-99.99,,2013-01-18 03:23:00,
2013-01-17 19:33:00,-999.0,-99.9,-100.00,North,5,3.0,-999.0,-999,-99.99,,,-99.99,,2013-01-18 03:33:00,
2013-01-17 19:43:00,-999.0,-99.9,-100.00,North,5,3.0,-999.0,-999,-99.99,,,-99.99,,2013-01-18 03:43:00,
2013-01-17 20:03:00,-999.0,-99.9,-100.00,NW,320,3.0,-999.0,-999,-99.99,,,-99.99,,2013-01-18 04:03:00,
2013-01-17 20:12:00,-999.0,-99.9,-100.00,NW,320,3.0,-999.0,-999,-99.99,,,-99.99,,2013-01-18 04:12:00,
2013-01-17 21:34:00,-999.0,-99.9,-100.00,North,11,4.0,-999.0,-999,-99.99,,,-99.99,,2013-01-18 05:34:00,
2013-01-17 21:43:00,-999.0,-99.9,-100.00,North,11,4.0,-999.0,-999,-99.99,,,-99.99,,2013-01-18 05:43:00,
2013-01-17 22:03:00,-999.0,-99.9,-100.00,NNE,33,6.0,-999.0,-999,-99.99,,,-99.99,,2013-01-18 06:03:00,
2013-01-17 22:23:00,-999.0,-99.9,-100.00,North,0,6.0,-999.0,-999,-99.99,,,-99.99,,2013-01-18 06:23:00,
2013-01-17 22:33:00,-999.0,-99.9,-100.00,North,5,9.0,-999.0,-999,-99.99,,,-99.99,,2013-01-18 06:33:00,
2013-01-17 22:43:00,-999.0,-99.9,-100.00,North,5,9.0,-999.0,-999,-99.99,,,-99.99,,2013-01-18 06:43:00,
2013-01-17 22:52:00,53.0,12.0,-100.00,North,-999,-999.0,-999.0,18,-99.99,,,-99.99,,2013-01-18 06:52:00,
2013-01-17 23:02:00,-999.0,-99.9,-100.00,North,0,6.0,-999.0,-999,-99.99,,,-99.99,,2013-01-18 07:02:00,
2013-01-17 23:12:00,-999.0,-99.9,-100.00,North,0,6.0,-999.0,-999,-99.99,,,-99.99,,2013-01-18 07:12:00,
2013-01-17 23:22:00,-999.0,-99.9,-100.00,North,0,6.0,-999.0,-999,-99.99,,,-99.99,,2013-01-18 07:22:00,
2013-01-17 23:43:00,-999.0,-99.9,-100.00,NE,39,7.0,-999.0,-999,-99.99,,,-99.99,,2013-01-18 07:43:00,
2013-01-17 23:53:00,-999.0,-99.9,-100.00,NE,39,7.0,-999.0,-999,-99.99,,,-99.99,,2013-01-18 07:53:00,